{"data":{"norad_id":62670,"intl_designator":"2025-009BP","name":"FLOCK 4G-10","alt_names":[],"object_type":"PAYLOAD","status":"ACTIVE","operator":null,"country":"US","launch_date":"2025-01-14","launch_site_code":"AFWTR","launch_vehicle":null,"mission":null,"orbit_class":"UNKNOWN","rcs_meters":null,"size_class":null,"mass_kg":null,"dimensions":null,"purposes":["earth_obs"],"wikipedia_slug":null,"has_3d_model":false,"image_url":null,"decayed_at":null,"tle_current":{"epoch":"2026-09-19T11:07:55.896096Z","epoch_age_seconds":104232,"freshness":"FRESH","line1":"1 62670U 25009BP  26262.46384139  .00007742  00000+0  26056-3 0  9994","line2":"2 62670  97.3864 343.1345 0004118  20.9611 339.1798 15.31053052150951","mean_motion":15.31053052,"eccentricity":0.0004118,"inclination_deg":97.3864,"raan_deg":343.1345,"arg_perigee_deg":20.9611,"mean_anomaly_deg":339.1798,"bstar":0.00026056,"rev_number":15095,"period_min":94.052913327787,"perigee_km":469.84803060835,"apogee_km":475.49035458857,"semimajor_km":6850.8061925985,"source":"CELESTRAK","updated_at":"2026-09-20T09:00:34.723027Z"}}}